Content
SEND FEEDBACK

Daily
Averages
Monthly
Summary
United States of America

DRIPPING SPRINGS, TEXAS


Home > North America > United States > Texas
Elevation: 354 meters     Latitude: 30 12N     Longitude: 098 13W

WEATHER
 
SELECT A DAY
Number of Records: 120,273;   Date Range: 6/5/09 - 8/20/14
 
SHARE

PRINT THIS DATA

[ ← Previous Day ]
WEATHER ALMANAC - 13 FEBRUARY, 2013
[ Next Day → ]
[ °F ]   °C
Weather ElementAverageHighLow
Temperature7.5 °C15 °C (2:15 pm)2 °C (3:55 am)
Dewpoint-0.1 °C1 °C (9:55 am)-2 °C (3:35 pm)
Humidity62.2 %87 % (3:55 am)31 % (3:35 pm)
Barometer1019 hPa1021.7 hPa (9:15 am)1016.9 hPa (2:55 pm)
Wind Speed7.4 km/h16.7 km/h (8:15 am)
Weather ElementAverage
Visibility15.9 km
Wind DirectionSSW (197.1 °)

Weather ElementTotal
Precipitation0.76 mm
Heating Degree Days9.8 (Base 18.3)
Averaged from 69 records on 13 February, 2013
WEATHER CONDITIONS BREAKOUT
WIND DIRECTION BREAKOUT
WEATHER BY HOUR - 13 FEBRUARY, 2013
[ °F ]   °C
Local TimeTemperatureDewpointHumidityBarometerVisibilityWind DirectionWind SpeedGust SpeedPrecipitationEventsConditions
12:35 AM5 °C0 °C70 %1019 hPa16.1 kmNW (320°)13 km/hClear
12:55 AM5 °C0 °C70 %1019 hPa16.1 kmNW (320°)13 km/hClear
1:15 AM5 °C0 °C70 %1019.6 hPa16.1 kmWest (270°)7.4 km/hClear
1:35 AM4 °C0 °C75 %1020 hPa16.1 kmWSW (250°)9.3 km/hClear
1:55 AM4 °C0 °C75 %1020 hPa16.1 kmWNW (300°)5.6 km/hClear
2:15 AM3 °C0 °C81 %1020 hPa16.1 kmWNW (290°)5.6 km/hClear
2:35 AM3 °C0 °C81 %1020 hPa16.1 kmWNW (290°)7.4 km/hClear
2:55 AM3 °C0 °C81 %1020 hPa16.1 kmWNW (300°)5.6 km/hClear
3:15 AM3 °C0 °C81 %1020 hPa16.1 kmNW (310°)7.4 km/hClear
3:35 AM3 °C0 °C81 %1020 hPa16.1 kmWest (270°)5.6 km/hClear
3:55 AM2 °C0 °C87 %1020 hPa16.1 kmCalmScattered Clouds
4:15 AM2 °C0 °C87 %1020 hPa16.1 kmCalmMostly Cloudy
4:35 AM2 °C0 °C87 %1020 hPa16.1 kmWest (260°)5.6 km/hOvercast
4:55 AM2 °C0 °C87 %1020 hPa16.1 kmWNW (290°)7.4 km/hScattered Clouds
5:15 AM2 °C0 °C87 %1020 hPa16.1 kmWNW (290°)7.4 km/hClear
5:35 AM2 °C0 °C87 %1020.3 hPa16.1 kmWest (280°)5.6 km/hClear
5:55 AM2 °C0 °C87 %1020.7 hPa16.1 kmCalmClear
6:15 AM2 °C0 °C87 %1020.7 hPa16.1 kmWest (270°)7.4 km/hClear
6:35 AM2 °C0 °C87 %1021 hPa16.1 kmWest (280°)7.4 km/hClear
6:55 AM2 °C0 °C87 %1021 hPa16.1 kmWest (280°)9.3 km/hClear
7:15 AM3 °C0 °C81 %1021 hPa16.1 kmWNW (300°)9.3 km/hClear
7:35 AM3 °C0 °C81 %1021 hPa16.1 kmNW (310°)9.3 km/hClear
7:55 AM5 °C0 °C70 %1021.3 hPa16.1 kmWNW (300°)14.8 km/hClear
8:15 AM5 °C0 °C70 %1021.3 hPa16.1 kmNW (320°)16.7 km/hClear
8:35 AM6 °C0 °C66 %1021.3 hPa16.1 kmNW (310°)14.8 km/hClear
9:15 AM7 °C0 °C61 %1021.7 hPa16.1 kmNW (320°)16.7 km/hClear
9:55 AM8 °C1 °C62 %1021.3 hPa16.1 kmNNW (340°)9.3 km/h0.76 mmClear
10:15 AM9 °C0 °C54 %1021.3 hPa16.1 kmNNW (340°)14.8 km/hClear
10:35 AM9 °C0 °C54 %1021 hPa16.1 kmNW (320°)13 km/hClear
10:55 AM10 °C1 °C54 %1020.7 hPa16.1 kmNNW (330°)11.1 km/hClear
11:15 AM10 °C1 °C54 %1020.7 hPa16.1 kmNW (320°)13 km/hClear
11:35 AM11 °C1 °C50 %1020.3 hPa16.1 kmNorth (350°)14.8 km/hClear
11:55 AM12 °C1 °C47 %1020 hPa16.1 kmNW (310°)7.4 km/hClear
12:15 PM12 °C0 °C44 %1019.3 hPa16.1 kmNorth (350°)7.4 km/hClear
12:35 PM13 °C0 °C41 %1019 hPa16.1 kmNW (320°)5.6 km/hClear
12:55 PM13 °C0 °C41 %1018.3 hPa16.1 kmNorth (350°)14.8 km/hClear
1:15 PM13 °C0 °C41 %1018.3 hPa16.1 kmNorth (350°)14.8 km/hClear
1:35 PM14 °C0 °C38 %1017.9 hPa16.1 kmNNW (340°)9.3 km/hClear
1:55 PM14 °C0 °C38 %1017.6 hPa16.1 kmNNE (30°)5.6 km/hClear
2:15 PM15 °C0 °C36 %1017.3 hPa16.1 kmCalmClear
2:35 PM15 °C-1 °C34 %1017.3 hPa16.1 kmCalmClear
2:55 PM15 °C-1 °C34 %1016.9 hPa16.1 kmNNW (330°)9.3 km/hClear
3:15 PM15 °C-1 °C34 %1016.9 hPa16.1 kmNorth (360°)9.3 km/hClear
3:35 PM15 °C-2 °C31 %1016.9 hPa16.1 kmNNE (30°)9.3 km/hClear
3:55 PM15 °C-2 °C31 %1016.9 hPa16.1 kmNE (40°)9.3 km/hClear
4:15 PM15 °C-2 °C31 %1016.9 hPa16.1 kmCalmClear
4:35 PM15 °C-2 °C31 %1016.9 hPa16.1 kmCalmClear
4:55 PM14 °C-2 °C33 %1016.9 hPa16.1 kmCalmClear
5:15 PM13 °C-1 °C38 %1016.9 hPa16.1 kmCalmClear
5:35 PM11 °C0 °C47 %1016.9 hPa16.1 kmCalmClear
5:55 PM8 °C1 °C62 %1016.9 hPa16.1 kmSE (140°)9.3 km/hClear
6:15 PM7 °C1 °C66 %1016.9 hPa16.1 kmSSE (150°)7.4 km/hClear
6:35 PM8 °C0 °C57 %1017.3 hPa16.1 kmSSE (150°)11.1 km/hClear
6:55 PM8 °C0 °C57 %1017.3 hPa16.1 kmCalmClear
7:15 PM6 °C1 °C70 %1017.6 hPa16.1 kmCalmClear
7:35 PM6 °C1 °C70 %1017.6 hPa16.1 kmCalmClear
7:55 PM5 °C1 °C76 %1017.9 hPa16.1 kmCalmClear
8:15 PM7 °C0 °C61 %1017.9 hPa16.1 kmCalmClear
8:35 PM6 °C0 °C66 %1018.3 hPa16.1 kmSSE (160°)5.6 km/hClear
8:55 PM5 °C0 °C70 %1018.3 hPa16.1 kmCalmClear
9:15 PM5 °C0 °C70 %1018.3 hPa16.1 kmSE (130°)5.6 km/hClear
9:35 PM6 °C0 °C66 %1018.6 hPa16.1 kmESE (120°)5.6 km/hClear
9:55 PM6 °C0 °C66 %1018.3 hPa11.3 kmSSE (150°)7.4 km/hClear
10:15 PM7 °C0 °C61 %1018.6 hPa16.1 kmSouth (170°)9.3 km/hClear
10:35 PM7 °C0 °C61 %1018.6 hPa16.1 kmSouth (170°)11.1 km/hClear
10:55 PM7 °C0 °C61 %1018.6 hPa16.1 kmSouth (180°)11.1 km/hClear
11:15 PM7 °C0 °C61 %1018.6 hPa16.1 kmSouth (180°)11.1 km/hClear
11:35 PM7 °C1 °C66 %1018.6 hPa11.3 kmSouth (180°)11.1 km/hClear
11:55 PM7 °C1 °C66 %1018.3 hPa16.1 kmSouth (180°)11.1 km/hClear
Hourly data recorded from KDZB, located 0 kilometers away from Dripping Springs, Texas







STORIES FROM OUR PARTNERS